When you browse on this site, cookies collect data to enhance your experience and personalize the content and advertising you see.
Visit our Privacy Policy to learn more. By continuing to use the site, you agree to this use of cookies and data.
  • In Romania
  • List of Countries
  • For 7 days
  • Water Temperature
  • Weather Map
  • Weather Widgets
  • user-avatar
    Login

    Hourly Weather Shardzha

    Today, 6 June, Saturday

    Time Temperature Precipitation Wind Pressure Humidity
    00:00 +36°C° 0 mm 2 mps 748 mmHg 54%
    01:00 +35°C° 0 mm 2 mps 748 mmHg 58%
    02:00 +34°C° 0 mm 1 mps 748 mmHg 60%
    03:00 +33°C° 0 mm 1 mps 748 mmHg 62%
    04:00 +31°C° 0 mm 0 mps 748 mmHg 63%
    05:00 +33°C° 0 mm 1 mps 748 mmHg 58%
    06:00 +34°C° 0 mm 1 mps 749 mmHg 54%
    07:00 +36°C° 0 mm 2 mps 749 mmHg 49%
    08:00 +39°C° 0 mm 1 mps 749 mmHg 39%
    09:00 +42°C° 0 mm 1 mps 749 mmHg 29%
    10:00 +45°C° 0 mm 1 mps 749 mmHg 20%
    11:00 +46°C° 0 mm 2 mps 749 mmHg 21%
    12:00 +48°C° 0 mm 4 mps 749 mmHg 22%
    13:00 +48°C° 0 mm 5 mps 749 mmHg 23%
    14:00 +47°C° 0 mm 5 mps 748 mmHg 24%
    15:00 +47°C° 0 mm 5 mps 748 mmHg 26%
    16:00 +46°C° 0 mm 5 mps 747 mmHg 28%
    17:00 +43°C° 0 mm 5 mps 747 mmHg 30%
    18:00 +42°C° 0 mm 4 mps 747 mmHg 33%
    19:00 +41°C° 0 mm 4 mps 747 mmHg 36%
    20:00 +40°C° 0 mm 4 mps 747 mmHg 38%
    21:00 +38°C° 0 mm 3 mps 747 mmHg 40%
    22:00 +37°C° 0 mm 3 mps 747 mmHg 42%
    23:00 +37°C° 0 mm 2 mps 747 mmHg 45%

    Tomorrow, 7 June, Sunday

    Time Temperature Precipitation Wind Pressure Humidity
    00:00 +35°C° 0 mm 1 mps 747 mmHg 48%
    01:00 +32°C° 0 mm 0 mps 747 mmHg 51%
    02:00 +32°C° 0 mm 0 mps 746 mmHg 52%
    03:00 +33°C° 0 mm 1 mps 746 mmHg 53%
    04:00 +33°C° 0 mm 1 mps 746 mmHg 54%
    05:00 +34°C° 0 mm 1 mps 747 mmHg 50%
    06:00 +36°C° 0 mm 2 mps 747 mmHg 45%
    07:00 +37°C° 0 mm 2 mps 748 mmHg 41%
    08:00 +39°C° 0 mm 2 mps 748 mmHg 34%
    09:00 +41°C° 0 mm 2 mps 748 mmHg 26%
    10:00 +45°C° 0 mm 2 mps 748 mmHg 19%
    11:00 +46°C° 0 mm 3 mps 748 mmHg 19%
    12:00 +48°C° 0 mm 4 mps 748 mmHg 19%
    13:00 +48°C° 0 mm 5 mps 748 mmHg 19%
    14:00 +48°C° 0 mm 5 mps 747 mmHg 20%
    15:00 +47°C° 0 mm 5 mps 747 mmHg 22%
    16:00 +46°C° 0 mm 5 mps 746 mmHg 23%
    17:00 +43°C° 0 mm 5 mps 747 mmHg 29%
    18:00 +41°C° 0 mm 4 mps 747 mmHg 35%
    19:00 +38°C° 0 mm 4 mps 747 mmHg 41%
    20:00 +37°C° 0 mm 3 mps 747 mmHg 45%
    21:00 +37°C° 0 mm 2 mps 747 mmHg 48%
    22:00 +36°C° 0 mm 2 mps 747 mmHg 52%
    23:00 +35°C° 0 mm 2 mps 747 mmHg 52%

    Day after tomorrow, 8 June, Monday

    Time Temperature Precipitation Wind Pressure Humidity
    00:00 +35°C° 0 mm 2 mps 747 mmHg 52%
    01:00 +33°C° 0 mm 1 mps 747 mmHg 52%
    02:00 +33°C° 0 mm 1 mps 747 mmHg 53%
    03:00 +32°C° 0 mm 1 mps 747 mmHg 54%
    04:00 +32°C° 0 mm 1 mps 747 mmHg 55%
    05:00 +34°C° 0 mm 2 mps 748 mmHg 50%
    06:00 +35°C° 0 mm 3 mps 748 mmHg 45%
    07:00 +36°C° 0 mm 4 mps 749 mmHg 40%
    08:00 +38°C° 0 mm 4 mps 749 mmHg 32%
    09:00 +42°C° 0 mm 4 mps 749 mmHg 24%
    10:00 +45°C° 0 mm 4 mps 750 mmHg 15%
    11:00 +47°C° 0 mm 4 mps 749 mmHg 14%
    12:00 +48°C° 0 mm 4 mps 749 mmHg 12%
    13:00 +49°C° 0 mm 4 mps 749 mmHg 11%
    14:00 +48°C° 0 mm 4 mps 749 mmHg 15%
    15:00 +46°C° 0 mm 5 mps 748 mmHg 20%
    16:00 +43°C° 0 mm 5 mps 748 mmHg 24%
    17:00 +42°C° 0 mm 4 mps 748 mmHg 30%
    18:00 +39°C° 0 mm 3 mps 748 mmHg 35%
    19:00 +37°C° 0 mm 3 mps 748 mmHg 40%
    20:00 +37°C° 0 mm 2 mps 749 mmHg 44%
    21:00 +35°C° 0 mm 1 mps 749 mmHg 47%
    22:00 +32°C° 0 mm 0 mps 749 mmHg 51%
    23:00 +33°C° 0 mm 1 mps 749 mmHg 50%

    9 June, Tuesday

    Time Temperature Precipitation Wind Pressure Humidity
    00:00 +33°C° 0 mm 1 mps 749 mmHg 50%
    01:00 +32°C° 0 mm 1 mps 749 mmHg 49%
    02:00 +32°C° 0 mm 1 mps 749 mmHg 48%
    03:00 +32°C° 0 mm 1 mps 749 mmHg 47%
    04:00 +32°C° 0 mm 2 mps 749 mmHg 46%
    05:00 +32°C° 0 mm 2 mps 749 mmHg 51%
    06:00 +34°C° 0 mm 2 mps 750 mmHg 56%
    07:00 +35°C° 0 mm 2 mps 751 mmHg 60%
    08:00 +37°C° 0 mm 2 mps 751 mmHg 49%
    09:00 +40°C° 0 mm 2 mps 751 mmHg 38%
    10:00 +43°C° 0 mm 2 mps 751 mmHg 26%
    11:00 +44°C° 0 mm 3 mps 751 mmHg 26%
    12:00 +45°C° 0 mm 4 mps 750 mmHg 26%
    13:00 +47°C° 0 mm 4 mps 750 mmHg 26%
    14:00 +46°C° 0 mm 5 mps 750 mmHg 29%
    15:00 +45°C° 0 mm 5 mps 749 mmHg 33%
    16:00 +44°C° 0 mm 6 mps 749 mmHg 36%
    17:00 +42°C° 0 mm 5 mps 749 mmHg 39%
    18:00 +41°C° 0 mm 4 mps 749 mmHg 43%
    19:00 +38°C° 0 mm 3 mps 749 mmHg 46%
    20:00 +38°C° 0 mm 3 mps 749 mmHg 48%
    21:00 +37°C° 0 mm 2 mps 749 mmHg 50%
    22:00 +36°C° 0 mm 1 mps 750 mmHg 52%
    23:00 +36°C° 0 mm 1 mps 749 mmHg 51%

    10 June, Wednesday

    Time Temperature Precipitation Wind Pressure Humidity
    00:00 +37°C° 0 mm 2 mps 749 mmHg 51%
    01:00 +36°C° 0 mm 2 mps 749 mmHg 50%
    02:00 +36°C° 0 mm 2 mps 749 mmHg 53%
    03:00 +35°C° 0 mm 3 mps 748 mmHg 56%
    04:00 +35°C° 0 mm 3 mps 748 mmHg 59%
    05:00 +35°C° 0 mm 3 mps 749 mmHg 57%
    06:00 +36°C° 0 mm 2 mps 749 mmHg 55%
    07:00 +35°C° 0 mm 1 mps 750 mmHg 52%
    08:00 +37°C° 0 mm 1 mps 750 mmHg 43%
    09:00 +41°C° 0 mm 1 mps 750 mmHg 34%
    10:00 +43°C° 0 mm 1 mps 750 mmHg 25%
    11:00 +45°C° 0 mm 2 mps 750 mmHg 24%
    12:00 +46°C° 0 mm 3 mps 750 mmHg 24%
    13:00 +48°C° 0 mm 4 mps 749 mmHg 24%
    14:00 +47°C° 0 mm 5 mps 749 mmHg 24%
    15:00 +47°C° 0 mm 5 mps 749 mmHg 25%
    16:00 +46°C° 0 mm 6 mps 748 mmHg 26%
    17:00 +43°C° 0 mm 5 mps 748 mmHg 33%
    18:00 +41°C° 0 mm 5 mps 748 mmHg 41%
    19:00 +38°C° 0 mm 4 mps 748 mmHg 48%
    20:00 +37°C° 0 mm 3 mps 748 mmHg 47%
    21:00 +37°C° 0 mm 2 mps 749 mmHg 47%
    22:00 +36°C° 0 mm 2 mps 749 mmHg 46%
    23:00 +36°C° 0 mm 2 mps 748 mmHg 46%

    11 June, Thursday

    Time Temperature Precipitation Wind Pressure Humidity
    00:00 +35°C° 0 mm 2 mps 748 mmHg 45%
    01:00 +35°C° 0 mm 2 mps 748 mmHg 44%
    02:00 +34°C° 0 mm 1 mps 748 mmHg 45%
    03:00 +33°C° 0 mm 1 mps 747 mmHg 45%
    04:00 +33°C° 0 mm 1 mps 747 mmHg 46%
    05:00 +35°C° 0 mm 2 mps 748 mmHg 42%
    06:00 +36°C° 0 mm 3 mps 748 mmHg 38%
    07:00 +37°C° 0 mm 4 mps 748 mmHg 34%
    08:00 +41°C° 0 mm 4 mps 749 mmHg 28%
    09:00 +43°C° 0 mm 4 mps 749 mmHg 22%
    10:00 +47°C° 0 mm 5 mps 749 mmHg 17%
    11:00 +48°C° 0 mm 5 mps 749 mmHg 15%
    12:00 +50°C° 0 mm 4 mps 749 mmHg 13%
    13:00 +51°C° 0 mm 4 mps 748 mmHg 11%
    14:00 +49°C° 0 mm 5 mps 748 mmHg 15%
    15:00 +47°C° 0 mm 6 mps 747 mmHg 19%
    16:00 +46°C° 0 mm 7 mps 747 mmHg 23%
    17:00 +44°C° 0 mm 6 mps 747 mmHg 27%
    18:00 +41°C° 0 mm 5 mps 747 mmHg 31%
    19:00 +38°C° 0 mm 4 mps 747 mmHg 35%
    20:00 +38°C° 0 mm 3 mps 747 mmHg 36%
    21:00 +37°C° 0 mm 2 mps 748 mmHg 37%
    22:00 +33°C° 0 mm 0 mps 748 mmHg 39%
    23:00 +32°C° 0 mm 0 mps 748 mmHg 39%
    Show more